Regional Weather Roundup
Issued by NWS Sterling, VA

Home | Current Version | Previous Version | Graphics & Text | Print | Product List | Glossary On
Versions: 1 2 3 4 5 6 7 8 9 10 11 12 13 14 15 16 17 18 19 20 21 22 23 24 25 26 27 28 29 30 31 32 33 34 35 36 37 38 39 40 41 42 43 44 45 46 47 48 49 50
000
ASUS41 KLWX 010410
RWRLWX

REGIONAL WEATHER ROUNDUP
NATIONAL WEATHER SERVICE BALTIMORE MD/WASHINGTON DC
1100 PM EST SAT JAN 31 2015

Note: "FAIR" indicates few or no clouds below 12,000 feet
with no significant weather and/or obstructions to visibility.
 TC=TEMPERATURE CELSIUS

 * =Non NWS site. Station does not report precipitation (e.g. rain,
    snow, etc.), thunder, or fog.

DCZ001-MDZ009-015-VAZ040>042-051-053>054-010500-
WASHINGTON METRO

CITY           SKY/WX    TMP DP  RH WIND       PRES   REMARKS
WASHINGTON NAT PTCLDY    29  14  53 CALM      30.28F
DULLES         PTCLDY    21  13  71 CALM      30.26S
ANDREWS AFB    CLEAR     21  14  74 CALM      30.26S
FT BELVOIR     CLEAR     21  14  75 NW1       30.29S
QUANTICO       CLEAR     23  15  71 NW7       30.29F
COLLEGE PARK*  CLEAR     21  16  79 CALM      30.28R
LEESBURG*      CLEAR     21  18  86 CALM      30.27S
MANASSAS*      PTCLDY    19  18  93 CALM      30.27F
GAITHERSBURG*  CLEAR     19   9  63 CALM      30.29R

$$

MDZ006>007-011-014-010500-
BALTIMORE METRO

CITY           SKY/WX    TMP DP  RH WIND       PRES   REMARKS
BWI AIRPORT    PTCLDY    20  11  68 CALM      30.27R
MD SCIENCE CTR   N/A     27  10  49 MISG      30.27S
ANNAPOLIS      CLEAR     24  14  65 CALM      30.28S
FORT MEADE*    CLEAR     18  14  86 CALM      30.30R

$$

MDZ012-015-019>023-010500-
MARYLAND EASTERN SHORE

CITY           SKY/WX    TMP DP  RH WIND       PRES   REMARKS
OCEAN CITY     CLEAR     19  13  77 NW3       30.29S
SALISBURY      CLEAR     20  12  71 CALM      30.28F
BAY BRIDGE AP*   N/A     25  18  74 CALM      30.29R
CAMBRIDGE*     FAIR      23  18  80 CALM      30.28S
EASTON*        FAIR      23  17  78 CALM      30.31S

$$

MDZ017>025-010500-
SOUTHERN MARYLAND

CITY           SKY/WX    TMP DP  RH WIND       PRES   REMARKS
PATUXENT RIVER CLEAR     21  10  62 CALM      30.28S
ST INIGOES     NOT AVBL
LEONARDTOWN*   CLEAR     21  10  63 CALM      30.29S

$$

MDZ003>005-010500-
NORTH CENTRAL MARYLAND

CITY           SKY/WX    TMP DP  RH WIND       PRES   REMARKS
FREDERICK*     CLEAR     23  12  63 SE6       30.29R
HAGERSTOWN APT CLEAR     29   9  43 SW7       30.23S
WESTMINSTER*   PTCLDY    21  10  63 CALM      30.22S

$$

MDZ501>502-010500-
WESTERN MARYLAND

CITY           SKY/WX    TMP DP  RH WIND       PRES   REMARKS
OAKLAND*       MOCLDY    21  10  63 W17G23    30.11S WCI   7
CUMBERLAND*    PTCLDY    25  14  63 CALM      30.27S

$$

VAZ025>031-010500-
SHENANDOAH VALLEY

CITY           SKY/WX    TMP DP  RH WIND       PRES   REMARKS
WINCHESTER*    CLEAR     25   9  50 CALM      30.23S
FRONT ROYAL*   FAIR      23  14  68 CALM      30.23S
LURAY*         FAIR      25  18  74 CALM      30.22S
NEW MARKET*    FAIR      21  16  81 CALM      30.22S
STAUNTON*      MOCLDY    25  15  66 CALM      30.23S
WAYNESBORO*    FAIR      33   2  27 SW7       30.20F

$$

WVZ021-048>050-054>055-010500-
EASTERN WEST VIRGINIA PANHANDLE

CITY           SKY/WX    TMP DP  RH WIND       PRES   REMARKS
MARTINSBURG    CLEAR     23   8  52 CALM      30.24S
PETERSBURG*    PTCLDY    28   9  44 E7        30.23F

$$

VAZ036>039-050-010500-
CENTRAL FOOTHILLS

CITY           SKY/WX    TMP DP  RH WIND       PRES   REMARKS
CHARLOTTESVILL MOCLDY    26  10  50 CALM      30.23F
CULPEPER*      PTCLDY    19  14  79 CALM      30.26S
ORANGE*        MOCLDY    25  18  74 CALM      30.26S
GORDONSVILLE*  FAIR      22  15  75 CALM      30.24S
WARRENTON*     FAIR      19  19 100 CALM      30.25F

$$

VAZ055>057-010500-
NORTH AND CENTRAL PIEDMONT

CITY           SKY/WX    TMP DP  RH WIND       PRES   REMARKS
FREDERICKSBRG* FAIR      24  13  64 CALM      30.27S
STAFFORD*      PTCLDY    20  11  68 CALM      30.31S

$$

NCZ024-NYZ072-PAZ021-071-VAZ022-071-010500-
OTHER REGIONAL OBSERVATIONS

CITY           SKY/WX    TMP DP  RH WIND       PRES   REMARKS
NEW YORK CITY  CLEAR     20   4  50 MISG      30.22F
PHILADELPHIA   CLEAR     22   8  55 W9        30.26S WCI  12
PITTSBURGH     CLOUDY    28  17  63 SW9       30.20F WCI  19
ROANOKE        MOCLDY    35   8  32 W6        30.26F
RICHMOND       FAIR      27  14  58 CALM      30.26S
RALEIGH        FAIR      34  14  43 CALM      30.28F

$$

ANZ530>537-010500-
MARINE OBSERVATIONS

STATION/POSITION TIME  TEMP    WIND        PRES
                       AIR SEA DIR/SP/G
                 (UTC) (F)     (DEG/KT/KT) (MB)
THOMAS PT LIGHT  0400   30 34  260/  3/  3 1026.5R
BALT KEY BRIDGE  0400   27     240/  3/  4 1025.2S
COVE POINT       0400   30      CALM  /  2 1025.2S
LEWISETTA        0400   26 33     CALM     1025.4R
SOLOMONS ISLAND  0400      36                N/A
PINEY POINT      0400          100/  3/  4   N/A

$$



USA.gov is the U.S. government's official web portal to all federal, state and local government web resources and services.